Regional Weather Roundup
Issued by NWS

Home | Current Version | Previous Version | Graphics & Text | Print | Product List | Glossary On
Versions: 1 2 3 4 5 6 7 8 9 10 11 12 13 14 15 16 17 18 19 20 21 22 23 24 25 26 27 28 29 30 31 32 33 34 35 36 37 38 39 40 41 42 43 44 45 46 47 48 49 50
000
ASUS45 KCYS 271410
RWRWY

WYOMING REGIONAL WEATHER ROUNDUP
NATIONAL WEATHER SERVICE CHEYENNE WY
700 AM MST TUE JAN 27 2015

NOTE:  "FAIR" INDICATES FEW OR NO CLOUDS BELOW 12,000 FEET
WITH NO SIGNIFICANT WEATHER AND/OR OBSTRUCTIONS TO VISIBILITY.

WYZ001-271500-
YELLOWSTONE NATIONAL PARK

CITY           SKY/WX    TMP DP  RH WIND       PRES   REMARKS
LK YELLOWSTONE   N/A      4   0  83 CALM      30.24F
W YELLOWSTONE  NOT AVBL

$$
WYZ002>013-054>058-071-098>099-271500-
NORTHERN WYOMING

CITY           SKY/WX    TMP DP  RH WIND       PRES   REMARKS
JACKSON        FOG       10   9  92 CALM      30.27S VSB 3/4
CODY           FAIR      43  25  49 SW21      30.03S
GREYBULL       FAIR      13  11  92 N6        30.07F WCI   4
WORLAND        FAIR      15  13  91 SE5       30.07F WCI   8
SHERIDAN       FAIR      34  24  67 CALM      29.97R
BUFFALO        FAIR      43  22  43 SW3       30.02R
GILLETTE       FAIR      49  26  41 SW16      30.00R
HULETT           N/A    N/A N/A N/A MISG        N/A
NEWCASTLE      FAIR      30  27  86 NE5       30.07R WCI  25

$$
WYZ014>020-022>026-101>103-271500-
CENTRAL WYOMING

CITY           SKY/WX    TMP DP  RH WIND       PRES   REMARKS
BIG PINEY      FAIR      11   6  81 NE5       30.26S WCI   3
PINEDALE       FAIR      10   9  92 W6        30.27S WCI   1
DUBOIS         FAIR      32  18  55 NW23G29   30.16F WCI  19
LANDER         FAIR      27  21  78 CALM      30.14R
RIVERTON       FAIR      25  22  88 NW7       30.15R WCI  17
CASPER         FAIR      44  24  45 SW18G25   30.11F
DOUGLAS        FAIR      40  23  50 NW6       30.10S

$$
WYZ021-027>030-104>119-271500-
SOUTHERN WYOMING

CITY           SKY/WX    TMP DP  RH WIND       PRES   REMARKS
EVANSTON       FAIR      35  24  64 E9        30.23S WCI  28
FORT BRIDGER   FAIR      30  28  94 W5        30.27S WCI  25
ROCK SPRINGS   FAIR      28  22  78 N5        30.24R WCI  23
DIXON          FAIR      20  16  86 CALM      30.33R
RAWLINS        FAIR      28  21  75 E6        30.26S WCI  22
SARATOGA       FAIR      34  23  64 S15       30.30R WCI  24
LARAMIE        FAIR      42  20  41 SW8       30.26R
CHEYENNE       FAIR      44  18  35 W9        30.16R
TORRINGTON     FAIR      29  23  78 W5        30.08R WCI  24
PINE BLUFFS    FAIR      32  23  69 S9        30.13S WCI  24

$$


USA.gov is the U.S. government's official web portal to all federal, state and local government web resources and services.